Location: Marcé
(47.5801°N, 0.3280°W)
Time: 19:38:32
(UTC+01:00)

Vanguard 2 - All Passes

Search period start: 06 December 2021 00:00
Search period end: 16 December 2021 00:00
Orbit: 554 x 2936 km, 32.9° (Epoch: 06 December)

Date Brightness Start Highest point End Pass type
(mag) Time Alt. Az. Time Alt. Az. Time Alt. Az.
06 Dec - 13:33:39 10° S 13:34:47 11° SSE 13:35:58 10° SE daylight
06 Dec - 15:38:11 10° SW 15:42:00 20° S 15:47:04 10° SE daylight
06 Dec - 17:45:34 10° SW 17:50:01 18° SSW 17:55:51 10° SSE visible
07 Dec - 13:50:01 10° S 13:52:04 13° SSE 13:54:22 10° SE daylight
07 Dec - 15:55:44 10° SW 15:59:26 19° S 16:04:16 10° SE daylight
07 Dec - 18:04:02 10° SW 18:07:32 14° SSW 18:11:47 10° SSE visible
08 Dec - 14:07:00 10° SSW 14:09:24 14° SSE 14:12:09 10° SE daylight
08 Dec - 16:13:30 10° SW 16:16:54 17° S 16:21:13 10° SSE daylight
09 Dec - 14:24:17 10° SSW 14:26:46 15° S 14:29:39 10° SE daylight
09 Dec - 16:31:36 10° SW 16:34:23 14° S 16:37:43 10° SSE daylight
10 Dec - 14:41:49 10° SSW 14:44:10 14° S 14:46:53 10° SSE daylight
10 Dec - 16:50:50 10° SSW 16:51:52 10° SSW 16:52:58 10° S daylight
11 Dec - 12:53:26 10° S 12:54:16 11° S 12:55:07 10° SSE daylight
11 Dec - 14:59:39 10° SSW 15:01:36 12° S 15:03:45 10° SSE daylight
12 Dec - 13:10:20 10° SSW 13:11:38 11° S 13:12:58 10° SSE daylight
12 Dec - 15:18:31 10° SSW 15:19:01 10° S 15:19:32 10° S daylight
13 Dec - 13:27:48 10° SSW 13:29:01 11° S 13:30:15 10° SSE daylight
14 Dec - 13:46:17 10° S 13:46:24 10° S 13:46:30 10° S daylight
15 Dec - 11:55:23 10° SSW 11:56:29 11° S 11:57:34 10° SSE daylight
